Location: Hurstbourne Priors
(51.2000°N, 1.3667°W)
Time: 22:24:56
(UTC+00:00)

Altair - Pass Details

Date: 11 April 2021
Orbit: 1501 x 1683 km, 47.2° (Epoch: 13 May)

Event Time Altitude Azimuth Distance (km) Brightness Sun altitude
Rises 12:51:07 0° 280° (W) 4,723 10.1 46.3°
Reaches altitude 10° 12:54:16 10° 276° (W) 3,717 9.7 46.2°
Maximum altitude 13:03:17 57° 202° (SSW) 1,745 10.2 45.7°
Drops below altitude 10° 13:12:08 10° 127° (SE) 3,647 9.7 45.2°
Sets 13:15:12 0° 123° (ESE) 4,628 10.1 45.0°
